Change the Weather History Date:

Friday, May 31, 2013

  Actual Average Record
Temperature  
Mean Temperature 60 °F -  
Max Temperature 64 °F 74 °F 90 °F (1984)
Min Temperature 55 °F 50 °F 35 °F (1964)
Degree Days  
Heating Degree Days 6    
Growing Degree Days 10 (Base 50)    
Moisture  
Dew Point 56 °F    
Average Humidity 86    
Maximum Humidity 100    
Minimum Humidity 77    
Precipitation  
Precipitation 0.07 in - - ()
Sea Level Pressure  
Sea Level Pressure 29.41 in    
Wind  
Wind Speed 12 mph (SSE)    
Max Wind Speed 22 mph    
Max Gust Speed 30 mph    
Visibility 10 miles    
Events Rain , Thunderstorm    
Averages and records for this station are not official NWS values.
T = Trace of Precipitation, MM = Missing Value Source: NWS Daily Summary

Daily Weather History Graph

Daily Weather History Graph

Search for Another Location

Airport or City:

Trip Planner

Search our weather history database for the weather conditions in past years. The results will help you decide how hot, cold, wet, or windy it might be!

Date:

Astronomy

May. 31, 2013 Rise Set
Actual Time 5:40 AM CDT 9:08 PM CDT
Civil Twilight 5:03 AM CDT 9:45 PM CDT
Nautical Twilight 4:14 AM CDT 10:34 PM CDT
Astronomical Twilight 3:11 AM CDT 11:37 PM CDT
Moon 1:28 AM CDT (5/31) 1:13 PM CDT (5/31)
Length of Visible Light 16h 42m
Length of Day
15h 27m
Waning Gibbous, 51% of the Moon is Illuminated
May 31
Waning Gibbous
May 31
Last Quarter
Jun 8
New
Jun 16
First Quarter
Jun 23
Full

Hourly Weather History & Observations

Time (CDT) Temp. Dew Point Humidity Pressure Visibility Wind Dir Wind Speed Gust Speed Precip Events Conditions
12:07 AM 62.6 °F 57.2 °F 82% 29.41 in 10.0 mi ESE 10.4 mph - N/A   Clear
12:15 AM 60.8 °F 57.2 °F 88% 29.41 in 10.0 mi ESE 12.7 mph - N/A   Clear
12:35 AM 60.8 °F 57.2 °F 88% 29.40 in 10.0 mi East 13.8 mph - N/A Thunderstorm Clear
12:56 AM 60.8 °F 57.2 °F 88% 29.41 in 10.0 mi East 11.5 mph - N/A   Clear
1:15 AM 60.8 °F 59.0 °F 94% 29.40 in 10.0 mi ESE 10.4 mph - N/A   Clear
1:35 AM 60.8 °F 59.0 °F 94% 29.40 in 10.0 mi SE 9.2 mph - N/A   Clear
1:55 AM 60.8 °F 57.2 °F 88% 29.39 in 10.0 mi ESE 9.2 mph - N/A   Clear
2:15 AM 60.8 °F 57.2 °F 88% 29.40 in 10.0 mi SE 10.4 mph - N/A   Clear
2:35 AM 60.8 °F 57.2 °F 88% 29.40 in 10.0 mi SE 10.4 mph - N/A   Clear
2:55 AM 60.8 °F 57.2 °F 88% 29.40 in 10.0 mi SE 9.2 mph - N/A   Clear
3:15 AM 59.0 °F 57.2 °F 94% 29.40 in 10.0 mi SE 9.2 mph - N/A   Clear
3:34 AM 57.2 °F 55.4 °F 94% 29.40 in 10.0 mi SE 9.2 mph - N/A   Clear
3:55 AM 57.2 °F 55.4 °F 94% 29.39 in 10.0 mi SE 9.2 mph - N/A   Clear
4:15 AM 59.0 °F 53.6 °F 82% 29.39 in 10.0 mi SSE 11.5 mph - N/A   Clear
4:35 AM 57.2 °F 53.6 °F 88% 29.39 in 10.0 mi SSE 11.5 mph - N/A   Clear
4:55 AM 57.2 °F 51.8 °F 82% 29.39 in 10.0 mi SSE 10.4 mph - N/A   Clear
5:14 AM 57.2 °F 51.8 °F 82% 29.38 in 10.0 mi SSE 11.5 mph - N/A   Clear
5:35 AM 57.2 °F 51.8 °F 82% 29.37 in 10.0 mi SE 10.4 mph - N/A   Clear
5:55 AM 55.4 °F 51.8 °F 88% 29.37 in 10.0 mi SSE 8.1 mph - N/A   Clear
6:15 AM 55.4 °F 51.8 °F 88% 29.37 in 10.0 mi SE 9.2 mph - N/A   Scattered Clouds
6:34 AM 55.4 °F 51.8 °F 88% 29.37 in 10.0 mi SE 11.5 mph - N/A   Overcast
6:55 AM 57.2 °F 51.8 °F 82% 29.36 in 10.0 mi SSE 11.5 mph - N/A   Overcast
7:15 AM 57.2 °F 53.6 °F 88% 29.36 in 10.0 mi SSE 13.8 mph - N/A   Overcast
7:35 AM 57.2 °F 53.6 °F 88% 29.35 in 10.0 mi SE 13.8 mph - N/A   Overcast
7:55 AM 57.2 °F 53.6 °F 88% 29.35 in 10.0 mi SE 13.8 mph - N/A   Overcast
8:15 AM 57.2 °F 53.6 °F 88% 29.35 in 10.0 mi SSE 17.3 mph 21.9 mph N/A   Overcast
8:35 AM 59.0 °F 53.6 °F 82% 29.35 in 10.0 mi SSE 17.3 mph 25.3 mph N/A   Overcast
8:55 AM 57.2 °F 53.6 °F 88% 29.35 in 10.0 mi SSE 20.7 mph 26.5 mph N/A   Overcast
9:14 AM 57.2 °F 53.6 °F 88% 29.35 in 10.0 mi SSE 18.4 mph 24.2 mph N/A   Overcast
9:35 AM 59.0 °F 55.4 °F 88% 29.35 in 10.0 mi SE 19.6 mph 26.5 mph N/A   Mostly Cloudy
9:54 AM 60.8 °F 55.4 °F 82% 29.35 in 10.0 mi SSE 17.3 mph 27.6 mph N/A   Overcast
10:15 AM 59.0 °F 55.4 °F 88% 29.35 in 10.0 mi SSE 17.3 mph 24.2 mph N/A   Overcast
10:35 AM 59.0 °F 55.4 °F 88% 29.35 in 7.0 mi SSE 19.6 mph 25.3 mph N/A   Drizzle
10:55 AM 59.0 °F 55.4 °F 88% 29.36 in 10.0 mi SSE 16.1 mph 26.5 mph N/A Rain Light Rain
11:15 AM 59.0 °F 55.4 °F 88% 29.37 in 10.0 mi SSE 18.4 mph 24.2 mph N/A Rain Light Rain
11:35 AM 59.0 °F 55.4 °F 88% 29.38 in 10.0 mi SSE 18.4 mph 28.8 mph 0.01 in Rain Light Rain
11:55 AM 57.2 °F 55.4 °F 94% 29.38 in 10.0 mi SSE 19.6 mph 27.6 mph 0.01 in Rain Rain
12:14 PM 57.2 °F 55.4 °F 94% 29.39 in 10.0 mi SSE 20.7 mph 27.6 mph 0.01 in Rain Light Rain
12:35 PM 57.2 °F 55.4 °F 94% 29.39 in 10.0 mi South 19.6 mph 27.6 mph 0.01 in   Mostly Cloudy
12:55 PM 57.2 °F 55.4 °F 94% 29.40 in 7.0 mi South 19.6 mph 29.9 mph 0.01 in   Scattered Clouds
1:15 PM 60.8 °F 57.2 °F 88% 29.40 in 10.0 mi South 19.6 mph 25.3 mph N/A   Scattered Clouds
1:35 PM 60.8 °F 57.2 °F 88% 29.40 in 5.0 mi South 21.9 mph 29.9 mph N/A   Scattered Clouds
1:55 PM 60.8 °F 57.2 °F 88% 29.41 in 10.0 mi South 18.4 mph 25.3 mph N/A   Mostly Cloudy
2:15 PM 62.6 °F 57.2 °F 82% 29.41 in 10.0 mi South 17.3 mph 25.3 mph N/A   Mostly Cloudy
2:35 PM 62.6 °F 55.4 °F 77% 29.41 in 10.0 mi South 17.3 mph 25.3 mph N/A   Mostly Cloudy
2:55 PM 64.4 °F 57.2 °F 77% 29.42 in 10.0 mi South 17.3 mph 21.9 mph N/A   Mostly Cloudy
3:15 PM 64.4 °F 57.2 °F 77% 29.42 in 10.0 mi South 17.3 mph 24.2 mph N/A   Mostly Cloudy
3:35 PM 62.6 °F 55.4 °F 77% 29.42 in 10.0 mi South 16.1 mph 19.6 mph N/A   Mostly Cloudy
3:55 PM 62.6 °F 55.4 °F 77% 29.42 in 10.0 mi SSE 13.8 mph 18.4 mph N/A   Overcast
4:15 PM 62.6 °F 55.4 °F 77% 29.43 in 10.0 mi SSE 12.7 mph - N/A   Overcast
4:34 PM 62.6 °F 57.2 °F 82% 29.43 in 7.0 mi South 11.5 mph 19.6 mph N/A Rain Rain
4:55 PM 62.6 °F 57.2 °F 82% 29.44 in 10.0 mi SSE 11.5 mph 17.3 mph N/A   Overcast
5:15 PM 64.4 °F 57.2 °F 77% 29.43 in 10.0 mi South 13.8 mph - N/A   Mostly Cloudy
5:35 PM 64.4 °F 57.2 °F 77% 29.44 in 10.0 mi SSW 16.1 mph 19.6 mph N/A   Mostly Cloudy
5:54 PM 64.4 °F 57.2 °F 77% 29.44 in 10.0 mi South 17.3 mph 21.9 mph N/A   Overcast
6:14 PM 64.4 °F 57.2 °F 77% 29.44 in 7.0 mi SSW 12.7 mph 18.4 mph N/A   Mostly Cloudy
6:35 PM 64.4 °F 57.2 °F 77% 29.45 in 10.0 mi South 10.4 mph - N/A   Overcast
6:55 PM 64.4 °F 57.2 °F 77% 29.45 in 10.0 mi SSW 10.4 mph 17.3 mph N/A   Overcast
7:14 PM 64.4 °F 57.2 °F 77% 29.45 in 10.0 mi SSW 6.9 mph - N/A   Overcast
7:34 PM 64.4 °F 57.2 °F 77% 29.46 in 10.0 mi South 6.9 mph - N/A   Mostly Cloudy
7:54 PM 62.6 °F 57.2 °F 82% 29.46 in 10.0 mi South 5.8 mph - N/A Rain Rain
8:14 PM 62.6 °F 57.2 °F 82% 29.46 in 10.0 mi SSE 4.6 mph - N/A   Mostly Cloudy
8:35 PM 62.6 °F 57.2 °F 82% 29.47 in 10.0 mi SE 4.6 mph - N/A   Overcast
8:55 PM 62.6 °F 57.2 °F 82% 29.47 in 10.0 mi SSE 6.9 mph - N/A   Overcast
9:14 PM 62.6 °F 57.2 °F 82% 29.48 in 10.0 mi SSE 6.9 mph - N/A   Overcast
9:35 PM 60.8 °F 57.2 °F 88% 29.49 in 10.0 mi SSE 6.9 mph - N/A   Overcast
9:54 PM 60.8 °F 57.2 °F 88% 29.50 in 10.0 mi South 6.9 mph - N/A   Overcast
10:14 PM 60.8 °F 57.2 °F 88% 29.50 in 7.0 mi SSE 8.1 mph - N/A   Drizzle
10:34 PM 59.0 °F 57.2 °F 94% 29.51 in 7.0 mi SE 8.1 mph - 0.02 in Rain Rain
10:54 PM 59.0 °F 57.2 °F 94% 29.51 in 10.0 mi SE 5.8 mph - 0.04 in Rain Light Rain
11:15 PM 59.0 °F 57.2 °F 94% 29.51 in 10.0 mi East 4.6 mph - 0.01 in Rain Rain
11:35 PM 59.0 °F 57.2 °F 94% 29.52 in 10.0 mi ESE 3.5 mph - 0.01 in   Light Drizzle
11:55 PM 57.2 °F 57.2 °F 100% 29.51 in 10.0 mi Calm Calm - 0.01 in   Mostly Cloudy